User: anonymous   Login
Location: Unspecified
(0.0000°N, 0.0000°E)
Time: 03:33:48
(UTC+00:00)
Language:

SWAYAM - Orbit

View from above orbital plane
View from above orbital plane
View from above satellite
View from above satellite

Ground track
Ground track

The orbit data is extracted from the following two-line orbital elements,

1 41607U 16040J   17112.85583838 +.00004948 +00000-0 +22888-3 0  9995
2 41607 097.4658 175.6715 0012735 269.2906 090.6870 15.20542263046193
Epoch (UTC): 22 April 2017 20:32:24
Eccentricity: 0.0012735
inclination: 97.4658°
perigee height: 495 km
apogee height: 513 km
right ascension of ascending node: 175.6715°
argument of perigee: 269.2906°
revolutions per day: 15.20542263
mean anomaly at epoch: 90.6870°
orbit number at epoch: 4619

The dashed part of the orbit path shows where the satellite is in the earth's shadow,  

DLR